Location: Albuquerque Trailhead
(34.7934°N, 106.3736°W)
Time: 10:30:37
(UTC+00:00)

Exosat Rocket - Pass Details

Date: 26 October 2021
Orbit: 759 x 2516 km, 72.3° (Epoch: 08 December)

Event Time Altitude Azimuth Distance (km) Brightness Sun altitude
Rises 09:07:05 0° 136° (SE) 4,384 7.5 -51.8°
Reaches altitude 10° 09:11:12 10° 115° (ESE) 3,734 7.3 -51.0°
Maximum altitude 09:16:14 16° 82° (E) 3,654 7.3 -50.1°
Drops below altitude 10° 09:22:05 10° 51° (NE) 4,493 7.9 -49.0°
Sets 09:27:50 0° 34° (NNE) 5,807 8.5 -47.9°
